Tracking 34401 objects as of 17-Jun-2026
HD Live streaming from Space Station
objects crossing your sky now

COSMOS 886 DEB

Track COSMOS 886 DEB now!
10-day predictions


NORAD ID: 9656
Int'l Code: 1976-126N
Perigee: 650.6 km
Apogee: 1,959.2 km
Inclination: 65.8 °
Period: 111.5 minutes
Semi major axis: 7675 km
RCS: 0.0512 m2 (small)
Launch date: December 27, 1976
Source: Commonwealth of Independent States (former USSR) (CIS)
Launch site: TYURATAM MISSILE AND SPACE COMPLEX (TTMTR)

Note: This is SATELLITE DEBRIS
Your satellite tracking list
Your tracking list is empty




NASA's NSSDC Master Catalog

Two Line Element Set (TLE):
1 09656U 76126N   26167.94248135  .00001037  00000-0  78259-3 0  9991
2 09656  65.8205 120.2552 0852404  77.0166 292.4548 12.90939940282182
Source of the keplerian elements: AFSPC